Salida, CO

3:42 PM MDT on July 24, 2017 (GMT -0600)
Salida

Weather History for KANK - September, 2013

Change the Weather History Date:

Thursday, September 19, 2013

  Actual Average (KGUC) Record (KGUC)
Temperature  
Mean Temperature 60 °F -  
Max Temperature 74 °F 65 °F 80 °F (2010)
Min Temperature 46 °F 32 °F 23 °F (2005)
Degree Days  
Heating Degree Days 5    
Growing Degree Days 10 (Base 50)    
Moisture  
Dew Point 40 °F    
Average Humidity 56    
Maximum Humidity 87    
Minimum Humidity 11    
Precipitation  
Precipitation 0.00 in - - ()
Sea Level Pressure  
Sea Level Pressure 30.25 in    
Wind  
Wind Speed 8 mph (SW)    
Max Wind Speed 18 mph    
Max Gust Speed 25 mph    
Visibility 10 miles    
Events      
Averages and records for this station are not official NWS values.
T = Trace of Precipitation, MM = Missing Value Source: NWS Daily Summary

Daily Weather History Graph

Daily Weather History Graph

Search for Another Location

Airport or City:

Trip Planner

Search our weather history database for the weather conditions in past years. The results will help you decide how hot, cold, wet, or windy it might be!

Date:

Astronomy

Sep. 19, 2013 Rise Set
Actual Time 6:49 AM MDT 7:05 PM MDT
Civil Twilight 6:23 AM MDT 7:31 PM MDT
Nautical Twilight 5:51 AM MDT 8:02 PM MDT
Astronomical Twilight 5:20 AM MDT 8:34 PM MDT
Moon 7:06 PM MDT (9/19) 7:01 AM MDT (9/19)
Length of Visible Light 13h 08m
Length of Day
12h 15m
Full, 100% of the Moon is Illuminated
Sep 19
Full
Sep 26
Last Quarter
Oct 4
New
Oct 11
First Quarter
Oct 18
Full

Hourly Weather History & Observations

Time (MDT) Temp. Dew Point Humidity Pressure Visibility Wind Dir Wind Speed Gust Speed Precip Events Conditions
12:15 AM 55.6 °F 41.4 °F 59% 30.22 in 10.0 mi South 13.8 mph 19.6 mph N/A   Overcast
12:35 AM 55.6 °F 42.6 °F 62% 30.24 in 10.0 mi WNW 4.6 mph - N/A   Overcast
12:55 AM 55.4 °F 42.1 °F 61% 30.25 in 10.0 mi WSW 10.4 mph - N/A   Mostly Cloudy
1:15 AM 55.8 °F 42.1 °F 60% 30.24 in 10.0 mi WSW 5.8 mph - N/A   Scattered Clouds
1:35 AM 55.4 °F 43.3 °F 64% 30.24 in 10.0 mi WNW 11.5 mph - N/A   Scattered Clouds
1:55 AM 54.5 °F 44.6 °F 69% 30.24 in 10.0 mi West 10.4 mph - N/A   Clear
2:15 AM 53.1 °F 45.7 °F 76% 30.24 in 10.0 mi SW 6.9 mph - N/A   Clear
2:35 AM 52.2 °F 45.5 °F 78% 30.23 in 10.0 mi WNW 8.1 mph - N/A   Clear
2:55 AM 52.7 °F 44.6 °F 74% 30.23 in 10.0 mi WNW 10.4 mph - N/A   Clear
3:15 AM 51.6 °F 43.7 °F 74% 30.24 in 10.0 mi West 9.2 mph - N/A   Clear
3:35 AM 51.8 °F 43.9 °F 74% 30.25 in 10.0 mi West 9.2 mph - N/A   Scattered Clouds
3:55 AM 51.1 °F 43.7 °F 76% 30.23 in 10.0 mi WSW 5.8 mph - N/A   Mostly Cloudy
4:15 AM 50.0 °F 43.7 °F 79% 30.22 in 10.0 mi North 5.8 mph - N/A   Scattered Clouds
4:35 AM 49.6 °F 44.1 °F 81% 30.22 in 10.0 mi NW 9.2 mph - N/A   Clear
4:55 AM 49.3 °F 43.7 °F 81% 30.22 in 10.0 mi NNW 9.2 mph - N/A   Clear
5:15 AM 49.3 °F 43.5 °F 81% 30.23 in 10.0 mi NW 5.8 mph - N/A   Clear
5:35 AM 48.9 °F 43.0 °F 80% 30.24 in 10.0 mi NW 8.1 mph - N/A   Clear
5:55 AM 48.4 °F 42.8 °F 81% 30.24 in 10.0 mi Calm Calm - N/A   Clear
6:15 AM 46.9 °F 42.8 °F 86% 30.24 in 10.0 mi NW 8.1 mph - N/A   Clear
6:35 AM 47.8 °F 42.6 °F 82% 30.24 in 10.0 mi North 4.6 mph - N/A   Scattered Clouds
6:55 AM 47.3 °F 42.6 °F 84% 30.25 in 10.0 mi WNW 3.5 mph - N/A   Scattered Clouds
7:15 AM 46.6 °F 42.8 °F 87% 30.25 in 10.0 mi NNW 5.8 mph - N/A   Clear
7:35 AM 47.7 °F 42.1 °F 81% 30.25 in 10.0 mi North 5.8 mph - N/A   Clear
7:55 AM 48.2 °F 42.6 °F 81% 30.27 in 10.0 mi Calm Calm - N/A   Clear
8:15 AM 49.3 °F 43.0 °F 79% 30.28 in 10.0 mi Calm Calm - N/A   Clear
8:35 AM 50.5 °F 43.2 °F 76% 30.29 in 10.0 mi NNW 3.5 mph - N/A   Clear
8:55 AM 51.8 °F 43.7 °F 74% 30.29 in 10.0 mi Calm Calm - N/A   Clear
9:15 AM 53.4 °F 43.9 °F 70% 30.29 in 10.0 mi Calm Calm - N/A   Clear
9:35 AM 54.9 °F 44.4 °F 68% 30.27 in 10.0 mi Calm Calm - N/A   Clear
9:55 AM 57.2 °F 43.7 °F 61% 30.27 in 10.0 mi Calm Calm - N/A   Clear
10:15 AM 58.5 °F 45.1 °F 61% 30.27 in 10.0 mi NNE 3.5 mph - N/A   Scattered Clouds
10:35 AM 61.7 °F 45.3 °F 55% 30.27 in 10.0 mi NNE 4.6 mph - N/A   Scattered Clouds
10:55 AM 63.7 °F 44.1 °F 49% 30.26 in 10.0 mi ESE 4.6 mph - N/A   Clear
11:15 AM 64.6 °F 45.1 °F 49% 30.25 in 10.0 mi ESE 8.1 mph - N/A   Scattered Clouds
11:35 AM 67.3 °F 43.3 °F 42% 30.25 in 10.0 mi South 11.5 mph 19.6 mph N/A   Scattered Clouds
11:55 AM 66.9 °F 43.3 °F 42% 30.25 in 10.0 mi SSE 12.7 mph 20.7 mph N/A   Mostly Cloudy
12:15 PM 66.7 °F 43.0 °F 42% 30.24 in 10.0 mi South 15.0 mph 20.7 mph N/A   Scattered Clouds
12:35 PM 68.2 °F 43.9 °F 41% 30.24 in 10.0 mi SSE 15.0 mph 21.9 mph N/A   Scattered Clouds
12:55 PM 68.5 °F 44.2 °F 42% 30.24 in 10.0 mi SSW 13.8 mph 21.9 mph N/A   Scattered Clouds
1:15 PM 69.4 °F 42.1 °F 37% 30.24 in 10.0 mi South 12.7 mph 19.6 mph N/A   Scattered Clouds
1:35 PM 70.0 °F 41.0 °F 35% 30.23 in 10.0 mi SW 8.1 mph 17.3 mph N/A   Scattered Clouds
1:55 PM 70.7 °F 38.1 °F 30% 30.22 in 10.0 mi South 9.2 mph 18.4 mph N/A   Clear
2:15 PM 72.0 °F 38.8 °F 30% 30.22 in 10.0 mi SW 9.2 mph 18.4 mph N/A   Clear
2:35 PM 73.2 °F 30.2 °F 20% 30.22 in 10.0 mi WSW 18.4 mph 23.0 mph N/A   Clear
2:55 PM 73.0 °F 32.0 °F 22% 30.21 in 10.0 mi SSW 10.4 mph 23.0 mph N/A   Clear
3:15 PM 73.6 °F 25.7 °F 17% 30.20 in 10.0 mi West 9.2 mph 19.6 mph N/A   Clear
3:35 PM 74.8 °F 21.7 °F 14% 30.20 in 10.0 mi WSW 13.8 mph 23.0 mph N/A   Clear
3:55 PM 74.8 °F 18.0 °F 12% 30.20 in 10.0 mi WSW 11.5 mph 20.7 mph N/A   Clear
4:15 PM 73.9 °F 15.1 °F 11% 30.20 in 10.0 mi West 11.5 mph 21.9 mph N/A   Clear
4:35 PM 74.3 °F 20.3 °F 13% 30.20 in 10.0 mi West 12.7 mph 17.3 mph N/A   Clear
4:55 PM 73.6 °F 23.0 °F 15% 30.20 in 10.0 mi WSW 11.5 mph - N/A   Clear
5:15 PM 72.9 °F 26.1 °F 18% 30.20 in 10.0 mi WSW 10.4 mph 18.4 mph N/A   Clear
5:35 PM 72.5 °F 27.5 °F 19% 30.21 in 10.0 mi WSW 10.4 mph - N/A   Clear
5:55 PM 71.6 °F 28.6 °F 20% 30.21 in 10.0 mi West 9.2 mph - N/A   Clear
6:15 PM 68.9 °F 39.2 °F 34% 30.23 in 10.0 mi SSE 6.9 mph - N/A   Scattered Clouds
6:35 PM 64.2 °F 42.6 °F 45% 30.23 in 10.0 mi SE 12.7 mph 21.9 mph N/A   Mostly Cloudy
6:55 PM 62.2 °F 43.0 °F 49% 30.24 in 10.0 mi SE 15.0 mph 20.7 mph N/A   Mostly Cloudy
7:15 PM 61.7 °F 42.3 °F 49% 30.25 in 10.0 mi SE 17.3 mph 24.2 mph N/A   Scattered Clouds
7:35 PM 60.1 °F 43.5 °F 54% 30.26 in 10.0 mi ESE 13.8 mph 25.3 mph N/A   Clear
7:55 PM 59.0 °F 44.2 °F 58% 30.27 in 10.0 mi SE 13.8 mph 23.0 mph N/A   Clear
8:15 PM 58.5 °F 44.6 °F 60% 30.29 in 10.0 mi SE 8.1 mph 23.0 mph N/A   Clear
8:35 PM 57.4 °F 45.0 °F 63% 30.30 in 10.0 mi SE 8.1 mph - N/A   Clear
8:55 PM 57.2 °F 45.0 °F 64% 30.32 in 10.0 mi SE 8.1 mph - N/A   Clear
9:15 PM 56.3 °F 45.5 °F 67% 30.32 in 10.0 mi ESE 6.9 mph - N/A   Clear
9:35 PM 56.5 °F 45.5 °F 67% 30.33 in 10.0 mi SE 9.2 mph - N/A   Clear
9:55 PM 54.5 °F 42.1 °F 63% 30.33 in 10.0 mi SSW 5.8 mph - N/A   Clear
10:15 PM 55.2 °F 43.9 °F 66% 30.34 in 10.0 mi SSE 5.8 mph - N/A   Clear
10:35 PM 53.4 °F 42.1 °F 65% 30.35 in 10.0 mi South 4.6 mph - N/A   Clear
10:55 PM 53.6 °F 41.4 °F 63% 30.35 in 10.0 mi SSW 4.6 mph - N/A   Clear
11:15 PM 51.1 °F 40.5 °F 67% 30.35 in 10.0 mi SW 5.8 mph - N/A   Clear
11:35 PM 49.5 °F 40.3 °F 71% 30.35 in 10.0 mi SW 8.1 mph - N/A   Clear
11:55 PM 49.6 °F 40.1 °F 70% 30.36 in 10.0 mi SW 4.6 mph - N/A   Clear